User: anonymous
Location: Owatonna
(44.0840°N, 93.2260°W)
Time: 22:04:07
(UTC-05:00)
Language:

Cosmos 1500 Rocket - Orbit

View from above orbital plane
View from above orbital plane
View from above satellite
View from above satellite

Ground track
Ground track

The orbit data is extracted from the following two-line orbital elements,

1 14373U 83099B   14237.78686581  .00000279  00000-0  31198-4 0  7434
2 14373 082.5411 123.4887 0020478 017.4968 047.0500 14.83124862668702
Epoch (UTC): 25 August 2014 18:53:05
Eccentricity: 0.0020478
inclination: 82.5411°
perigee height: 605 km
apogee height: 634 km
right ascension of ascending node: 123.4887°
argument of perigee: 17.4968°
revolutions per day: 14.83124862
mean anomaly at epoch: 47.0500°
orbit number at epoch: 66870

The dashed part of the orbit path shows where the satellite is in the earth's shadow,  

DLR